This is the latest recevied weather packets stored in our database for station/object KA3BQE-13. If no packets are shown the sender has not sent any weather packets the latest 10 day(s).
| Time | Temp. | Humidity | Pressure | Rain* | Wind** | Luminosity | Snow |
|---|---|---|---|---|---|---|---|
| 1777836650 | 18.89° C | 44% | 1012.1 hPa | 0 mm | - | 738 W/m² | - |
| 1777836346 | 18.89° C | 47% | 1012.2 hPa | 0 mm | - | 741 W/m² | - |
| 1777836043 | 18.33° C | 45% | 1012.1 hPa | 0 mm | - | 742 W/m² | - |
| 1777835739 | 18.33° C | 46% | 1011.9 hPa | 0 mm | - | 761 W/m² | - |
| 1777835436 | 18.33° C | 47% | 1012.1 hPa | 0 mm | - | 769 W/m² | - |
| 1777835133 | 18.33° C | 46% | 1012.2 hPa | 0 mm | - | 785 W/m² | - |
| 1777834831 | 18.33° C | 44% | 1012.4 hPa | 0 mm | - | 782 W/m² | - |
| 1777834527 | 18.33° C | 45% | 1012.6 hPa | 0 mm | - | 807 W/m² | - |
| 1777834226 | 17.78° C | 47% | 1012.8 hPa | 0 mm | - | 798 W/m² | - |
| 1777833923 | 18.33° C | 45% | 1012.9 hPa | 0 mm | - | 840 W/m² | - |
| 1777833620 | 17.78° C | 49% | 1013.1 hPa | 0 mm | - | 844 W/m² | - |
| 1777833316 | 17.22° C | 48% | 1013.3 hPa | 0 mm | - | 505 W/m² | - |
| 1777833013 | 17.22° C | 49% | 1013.4 hPa | 0 mm | - | 423 W/m² | - |
| 1777832712 | 16.67° C | 49% | 1013.7 hPa | 0 mm | - | 657 W/m² | - |
| 1777832409 | 16.11° C | 49% | 1014 hPa | 0 mm | - | 385 W/m² | - |
| 1777832106 | 16.11° C | 50% | 1013.9 hPa | 0 mm | - | 359 W/m² | - |
| 1777831802 | 15.56° C | 51% | 1014.4 hPa | 0 mm | - | 317 W/m² | - |
| 1777831500 | 15.56° C | 50% | 1014.6 hPa | 0 mm | - | 249 W/m² | - |
| 1777831196 | 15.56° C | 51% | 1014.6 hPa | 0 mm | - | 264 W/m² | - |
| 1777830895 | 15.56° C | 51% | 1014.9 hPa | 0 mm | - | 213 W/m² | - |
| 1777830591 | 15.56° C | 50% | 1014.8 hPa | 0 mm | - | 192 W/m² | - |
| 1777830289 | 15.56° C | 50% | 1014.8 hPa | 0 mm | - | 353 W/m² | - |
| 1777829984 | 15.56° C | 51% | 1015.1 hPa | 0 mm | - | 213 W/m² | - |
| 1777829680 | 15.56° C | 50% | 1015.3 hPa | 0 mm | - | 194 W/m² | - |
| 1777829377 | 15.56° C | 51% | 1015.4 hPa | 0 mm | - | 246 W/m² | - |
* Rain latest hour (hover to see other rain measurements)
** Current wind speed in m/s (hover to see current wind gust speed)